Flag for Russia Weather past 2 weeks in Yekaterinburg, Russia

Now
54 °F

Broken clouds.


Feels Like: 50 °F
Forecast: 52 / 60 °F
Wind: 13 mph from West

Location: Ekaterinburg

Current Time: Aug 4, 2015 at 9:54:19 PM

Latest Report: Aug 4, 2015 at 9:30 PM


Visibility: N/A

Pressure: 29.74 "Hg

Humidity: 94%

Dew point: 52 °F

Location of YekaterinburgLocation

Historic Weather in Yekaterinburg — Graph

°F

Yekaterinburg temperature yesterday

Maximum temperature yesterday: 72 °F (at 2:30 PM)
Minimum temperature yesterday: 54 °F (at 2:00 AM)
Average temperature yesterday: 63 °F

Past Weeks' High & Low Weather Summary

 TemperatureHumidityPressure
High79 °F (Jul 30, 2:30 PM)100% (Jul 21, 2:00 AM)29.98 "Hg (Jul 21, 2:00 AM)
Low46 °F (Jul 21, 2:30 AM)44% (Jul 24, 3:30 PM)29.56 "Hg (Jul 22, 2:00 PM)
Average63 °F80%29.76 "Hg
* Reported Jul 20 8:00 PM — Aug 4 8:30 PM, Yekaterinburg, Weather by CustomWeather, © 2015

Note: Actual official high and low records may vary slightly from our data, if they occured in-between our weather recording intervals... More about our weather records

Advertising

Yekaterinburg weather history for previous 24 hours

 ConditionsComfort  
Time TempWeatherWind HumidityBarometerVisibility
8:30 PM
Tue, Aug 4
55 °FBroken clouds.13 mph88%29.74 "HgN/A
8:00 PM57 °FMostly cloudy.13 mph88%29.74 "HgN/A
7:30 PM59 °FBroken clouds.15 mph82%29.74 "HgN/A
7:00 PM59 °FPartly sunny.17 mph82%29.74 "HgN/A
6:30 PM59 °FPartly sunny.17 mph82%29.74 "HgN/A
6:00 PM59 °FMostly cloudy.15 mph88%29.74 "HgN/A
5:30 PM57 °FPartly sunny.17 mph88%29.74 "HgN/A
5:00 PM59 °FPartly sunny.13 mph88%29.74 "HgN/A
4:30 PM57 °FMostly cloudy.15 mph94%29.74 "HgN/A
4:00 PM57 °FSprinkles. Mostly cloudy.22 mph94%29.74 "HgN/A
3:30 PM57 °FSprinkles. Partly sunny.13 mph94%29.74 "HgN/A
3:00 PM57 °FSprinkles. Mostly cloudy.15 mph88%29.74 "HgN/A
2:30 PM59 °FSprinkles. Cloudy.10 mph94%29.74 "Hg6 mi
2:00 PM59 °FSprinkles. Mostly cloudy.8 mph94%29.77 "HgN/A
1:30 PM57 °FSprinkles. Mostly cloudy.8 mph100%29.77 "HgN/A
1:00 PM57 °FSprinkles. Mostly cloudy.3 mph100%29.80 "Hg6 mi
12:30 PM57 °FSprinkles. Mostly cloudy.6 mph94%29.80 "Hg5 mi
12:00 PM57 °FSprinkles. More clouds than sun.6 mph94%29.83 "Hg6 mi
11:30 AM59 °FSprinkles. Mostly cloudy.6 mph94%29.83 "HgN/A
11:00 AM59 °FSprinkles. Mostly cloudy.6 mph94%29.83 "HgN/A
10:30 AM61 °FSprinkles. More clouds than sun.8 mph83%29.83 "HgN/A
10:00 AM61 °FOvercast.3 mph83%29.83 "HgN/A
9:30 AM59 °FOvercast.3 mph88%29.86 "HgN/A
9:00 AM59 °FSunny.3 mph88%29.86 "Hg10 mi
8:00 AM57 °FSunny.3 mph88%29.89 "Hg10 mi
7:30 AM57 °FSunny.6 mph88%29.89 "Hg10 mi
7:00 AM55 °FSunny.6 mph94%29.89 "Hg10 mi
6:30 AM55 °FSunny.8 mph94%29.89 "Hg10 mi
6:00 AM55 °FClear.8 mph94%29.89 "Hg10 mi
5:30 AM55 °FClear.6 mph94%29.89 "Hg10 mi
5:00 AM54 °FClear.6 mph94%29.89 "Hg10 mi
4:30 AM54 °FClear.6 mph94%29.92 "Hg10 mi
4:00 AM54 °FClear.3 mph94%29.92 "Hg10 mi
3:30 AM52 °FClear.No wind100%29.92 "Hg10 mi
3:00 AM52 °FClear.No wind94%29.92 "Hg10 mi
2:30 AM54 °FClear.3 mph94%29.95 "Hg10 mi
2:00 AM54 °FClear.6 mph94%29.95 "Hg10 mi
1:30 AM55 °FClear.6 mph88%29.95 "Hg10 mi
1:00 AM55 °FPartly cloudy.6 mph94%29.95 "HgN/A
12:30 AM55 °FPartly cloudy.6 mph94%29.95 "HgN/A
12:00 AM55 °FPartly cloudy.1 mph88%29.95 "HgN/A
11:30 PM
Mon, Aug 3
55 °FClear.6 mph88%29.95 "Hg10 mi
11:00 PM57 °FClear.3 mph88%29.95 "Hg10 mi
10:30 PM57 °FClear.6 mph88%29.95 "Hg10 mi
10:00 PM59 °FSunny.3 mph82%29.95 "Hg10 mi
9:30 PM61 °FBroken clouds.6 mph77%29.98 "HgN/A
9:00 PM63 °FBroken clouds.10 mph73%29.95 "HgN/A
Weather by CustomWeather, © 2015

See weather overviewHow to use our weather pages